Voltar ao catálogo

STARLINK-31460

AtivoComunicaçõesVLEO
NORAD 59008·PAYLOAD·🇺🇸 United States

Lançado Feb 23, 2024 de Vandenberg Space Force Base

Loading…

Próximas Passagens (próximas 24 horas)

TLE

AtualizadoSource: CelesTrak SupGP

Época: Sep 14, 2026, 22:31 UTC

1 59008C 24036L   26257.93868056  .00053443  00000+0  15792-2 0  2575
2 59008  53.1560 277.4440 0001321  97.5543 180.4686 15.34359411    12

Acompanhe STARLINK-31460 em tempo real com AllMySat

Download on the App Store